Sault Ste Marie, MI

8:07 AM EDT on March 23, 2017 (GMT -0400)
Sault Ste Marie Municipal / Sanderson Field

Weather History for KANJ - October, 2012

Change the Weather History Date:

Monday, October 8, 2012

  Actual Average Record
Temperature  
Mean Temperature 43 °F 48 °F  
Max Temperature 56 °F 57 °F 78 °F (2011)
Min Temperature 30 °F 40 °F 25 °F (1979)
Degree Days  
Heating Degree Days 22 17  
Month to date heating degree days 123 122  
Since 1 July heating degree days 451 523  
Cooling Degree Days 0 0  
Month to date cooling degree days 0 0  
Year to date cooling degree days 402 195  
Moisture  
Dew Point 31 °F    
Average Humidity 64    
Maximum Humidity 89    
Minimum Humidity 38    
Precipitation  
Precipitation 0.00 in 0.13 in 1.08 in (2004)
Month to date precipitation 0.29 1.04  
Year to date precipitation 19.27 24.03  
Snow  
Snow 0.00 in 0.00 in 0.70 in (1993)
Month to date snowfall 0.0 0.1  
Since 1 July snowfall 0.0 0.1  
Snow Depth 0.00 in    
Sea Level Pressure  
Sea Level Pressure 29.96 in    
Wind  
Wind Speed 9 mph (South)    
Max Wind Speed 22 mph    
Max Gust Speed 31 mph    
Visibility 10 miles    
Events      
T = Trace of Precipitation, MM = Missing Value Source: NWS Daily Summary

Daily Weather History Graph

Daily Weather History Graph

Search for Another Location

Airport or City:

Trip Planner

Search our weather history database for the weather conditions in past years. The results will help you decide how hot, cold, wet, or windy it might be!

Date:

Astronomy

Oct. 08, 2012 Rise Set
Actual Time 7:46 AM EDT 7:02 PM EDT
Civil Twilight 7:15 AM EDT 7:33 PM EDT
Nautical Twilight 6:40 AM EDT 8:07 PM EDT
Astronomical Twilight 6:05 AM EDT 8:42 PM EDT
Moon 12:01 AM EDT (10/8) 3:13 PM EDT (10/8)
Length of Visible Light 12h 17m
Length of Day
11h 16m
Waning Gibbous, 46% of the Moon is Illuminated
Oct 8
Waning Gibbous
Oct 15
New
Oct 21
First Quarter
Oct 29
Full
Nov 6
Last Quarter

Hourly Weather History & Observations

Time (EDT) Temp. Windchill Dew Point Humidity Pressure Visibility Wind Dir Wind Speed Gust Speed Precip Events Conditions
12:55 AM 36.0 °F 28.5 °F 30.0 °F 79% 29.99 in 10.0 mi South 10.4 mph - N/A   Clear
1:55 AM 36.0 °F 30.3 °F 30.0 °F 79% 29.99 in 10.0 mi South 6.9 mph - N/A   Clear
2:55 AM 35.1 °F 31.0 °F 30.0 °F 82% 30.00 in 10.0 mi SSW 4.6 mph - N/A   Clear
3:55 AM 34.0 °F - 30.0 °F 85% 29.99 in 10.0 mi Calm Calm - N/A   Clear
4:55 AM 32.0 °F 28.7 °F 28.9 °F 88% 29.99 in 10.0 mi SE 3.5 mph - N/A   Clear
5:55 AM 32.0 °F - 27.0 °F 82% 30.00 in 10.0 mi Calm Calm - N/A   Clear
6:55 AM 30.9 °F - 26.1 °F 82% 30.00 in 10.0 mi Calm Calm - N/A   Partly Cloudy
7:55 AM 32.0 °F - 25.0 °F 75% 30.01 in 10.0 mi Calm Calm - N/A   Overcast
8:55 AM 39.0 °F 36.8 °F 34.0 °F 82% 30.01 in 10.0 mi South 3.5 mph - N/A   Mostly Cloudy
9:55 AM 45.0 °F 41.2 °F 36.0 °F 71% 30.01 in 10.0 mi South 6.9 mph - N/A   Clear
10:55 AM 48.9 °F - 35.1 °F 59% 30.00 in 10.0 mi South 11.5 mph - N/A   Clear
11:55 AM 51.1 °F - 34.0 °F 52% 29.99 in 10.0 mi South 16.1 mph 21.9 mph N/A   Clear
12:55 PM 53.1 °F - 30.9 °F 43% 29.99 in 10.0 mi South 18.4 mph 28.8 mph N/A   Scattered Clouds
1:55 PM 53.1 °F - 30.9 °F 43% 29.97 in 10.0 mi SSW 17.3 mph 24.2 mph N/A   Overcast
2:55 PM 55.0 °F - 30.9 °F 40% 29.95 in 10.0 mi South 16.1 mph 26.5 mph N/A   Mostly Cloudy
3:55 PM 54.0 °F - 30.9 °F 41% 29.94 in 10.0 mi South 17.3 mph 25.3 mph N/A   Overcast
4:55 PM 54.0 °F - 30.9 °F 41% 29.94 in 10.0 mi South 15.0 mph 24.2 mph N/A   Overcast
5:55 PM 53.1 °F - 30.0 °F 41% 29.92 in 10.0 mi South 11.5 mph 18.4 mph N/A   Overcast
6:55 PM 51.1 °F - 30.0 °F 44% 29.92 in 10.0 mi SSE 8.1 mph - N/A   Mostly Cloudy
7:55 PM 50.0 °F - 30.0 °F 46% 29.92 in 10.0 mi SSE 8.1 mph - N/A   Overcast
8:55 PM 51.1 °F - 30.9 °F 46% 29.91 in 10.0 mi SSE 9.2 mph - N/A   Overcast
9:55 PM 50.0 °F - 32.0 °F 50% 29.91 in 10.0 mi South 9.2 mph - N/A   Overcast
10:55 PM 51.1 °F - 32.0 °F 48% 29.91 in 10.0 mi South 11.5 mph - N/A   Overcast
11:55 PM 50.0 °F - 33.1 °F 52% 29.89 in 10.0 mi South 10.4 mph 21.9 mph N/A   Overcast